Location: Betpouey
(42.8833°N, 0.0333°E)
Time: 22:06:58
(UTC+00:00)

Cosmos 1689 Rocket - Pass Details

Date: 01 December 2020
Orbit: 356 x 370 km, 97.5° (Epoch: 19 January)

Event Time Altitude Azimuth Distance (km) Brightness Sun altitude
Rises 06:24:54 0° 212° (SSW) 2,173 5.8 -8.5°
Reaches altitude 10° 06:28:13 10° 256° (WSW) 1,340 4.3 -7.9°
Enters shadow 06:29:09 10° 275° (W) 1,327 4.2 -7.8°
Drops below altitude 10° 06:29:23 10° 280° (W) 1,344 4.2 -7.7°
Exits shadow 06:54:04 -47° 7° (N) 9,916 9.1 -3.6°
